<?xml version="1.0" encoding="UTF-8" standalone="no" ?>
<gpx xmlns="http://www.topografix.com/GPX/1/1" xmlns:xsi="http://www.w3.org/2001/XMLSchema-instance" xsi:schemaLocation="http://www.topografix.com/GPX/1/1 http://www.topografix.com/GPX/1/1/gpx.xsd" version="1.1" creator="VisuGPX - https://www.visugpx.com">
  <metadata>
    <name>Col de Perty - Chamouze</name>
    <desc><![CDATA[6:06:44 PM

comment ...]]></desc>
  </metadata>
  <trk>
    <name><![CDATA[Col de Perty - Chamouze]]></name>
    <desc><![CDATA[comment ...]]></desc>
    <extensions>
      <line xmlns="http://www.topografix.com/GPX/gpx_style/0/2">
        <color>0000FF</color>
        <width>4</width>
      </line>
    </extensions>
    <trkseg>
      <trkpt lat="44.28727" lon="5.54989">
        <ele>1297</ele>
        <time>2021-04-24T16:06:44Z</time>
      </trkpt>
      <trkpt lat="44.28724" lon="5.54992">
        <ele>1297</ele>
        <time>2021-04-24T16:06:44Z</time>
      </trkpt>
      <trkpt lat="44.28714" lon="5.54993">
        <ele>1298</ele>
        <time>2021-04-24T16:06:44Z</time>
      </trkpt>
      <trkpt lat="44.28707" lon="5.55001">
        <ele>1298</ele>
        <time>2021-04-24T16:06:44Z</time>
      </trkpt>
      <trkpt lat="44.28697" lon="5.55003">
        <ele>1298</ele>
        <time>2021-04-24T16:06:44Z</time>
      </trkpt>
      <trkpt lat="44.28687" lon="5.55009">
        <ele>1299</ele>
        <time>2021-04-24T16:06:44Z</time>
      </trkpt>
      <trkpt lat="44.28675" lon="5.5502">
        <ele>1300</ele>
        <time>2021-04-24T16:06:44Z</time>
      </trkpt>
      <trkpt lat="44.28671" lon="5.55023">
        <ele>1301</ele>
        <time>2021-04-24T16:06:44Z</time>
      </trkpt>
      <trkpt lat="44.28665" lon="5.55029">
        <ele>1302</ele>
        <time>2021-04-24T16:06:44Z</time>
      </trkpt>
      <trkpt lat="44.28661" lon="5.55038">
        <ele>1303</ele>
        <time>2021-04-24T16:06:44Z</time>
      </trkpt>
      <trkpt lat="44.28652" lon="5.55052">
        <ele>1303</ele>
        <time>2021-04-24T16:06:44Z</time>
      </trkpt>
      <trkpt lat="44.28648" lon="5.55052">
        <ele>1304</ele>
        <time>2021-04-24T16:06:44Z</time>
      </trkpt>
      <trkpt lat="44.28637" lon="5.55063">
        <ele>1305</ele>
        <time>2021-04-24T16:06:44Z</time>
      </trkpt>
      <trkpt lat="44.28635" lon="5.55068">
        <ele>1305</ele>
        <time>2021-04-24T16:06:44Z</time>
      </trkpt>
      <trkpt lat="44.28626" lon="5.55073">
        <ele>1306</ele>
        <time>2021-04-24T16:06:44Z</time>
      </trkpt>
      <trkpt lat="44.28615" lon="5.55077">
        <ele>1307</ele>
        <time>2021-04-24T16:06:44Z</time>
      </trkpt>
      <trkpt lat="44.28612" lon="5.55077">
        <ele>1307</ele>
        <time>2021-04-24T16:06:44Z</time>
      </trkpt>
      <trkpt lat="44.28605" lon="5.55082">
        <ele>1308</ele>
        <time>2021-04-24T16:06:44Z</time>
      </trkpt>
      <trkpt lat="44.28594" lon="5.55092">
        <ele>1309</ele>
        <time>2021-04-24T16:06:44Z</time>
      </trkpt>
      <trkpt lat="44.28591" lon="5.55094">
        <ele>1309</ele>
        <time>2021-04-24T16:06:44Z</time>
      </trkpt>
      <trkpt lat="44.28584" lon="5.55098">
        <ele>1310</ele>
        <time>2021-04-24T16:06:44Z</time>
      </trkpt>
      <trkpt lat="44.28577" lon="5.55104">
        <ele>1310</ele>
        <time>2021-04-24T16:06:44Z</time>
      </trkpt>
      <trkpt lat="44.28573" lon="5.55108">
        <ele>1311</ele>
        <time>2021-04-24T16:06:44Z</time>
      </trkpt>
      <trkpt lat="44.28556" lon="5.5512">
        <ele>1311</ele>
        <time>2021-04-24T16:06:44Z</time>
      </trkpt>
      <trkpt lat="44.28552" lon="5.55121">
        <ele>1312</ele>
        <time>2021-04-24T16:06:44Z</time>
      </trkpt>
      <trkpt lat="44.2854" lon="5.55127">
        <ele>1312</ele>
        <time>2021-04-24T16:06:44Z</time>
      </trkpt>
      <trkpt lat="44.28538" lon="5.55131">
        <ele>1313</ele>
        <time>2021-04-24T16:06:44Z</time>
      </trkpt>
      <trkpt lat="44.28534" lon="5.55141">
        <ele>1313</ele>
        <time>2021-04-24T16:06:44Z</time>
      </trkpt>
      <trkpt lat="44.2852" lon="5.55157">
        <ele>1313</ele>
        <time>2021-04-24T16:06:44Z</time>
      </trkpt>
      <trkpt lat="44.28517" lon="5.55157">
        <ele>1313</ele>
        <time>2021-04-24T16:06:44Z</time>
      </trkpt>
      <trkpt lat="44.28498" lon="5.5517">
        <ele>1314</ele>
        <time>2021-04-24T16:06:44Z</time>
      </trkpt>
      <trkpt lat="44.28494" lon="5.55174">
        <ele>1314</ele>
        <time>2021-04-24T16:06:44Z</time>
      </trkpt>
      <trkpt lat="44.28488" lon="5.55179">
        <ele>1314</ele>
        <time>2021-04-24T16:06:44Z</time>
      </trkpt>
      <trkpt lat="44.28479" lon="5.55177">
        <ele>1314</ele>
        <time>2021-04-24T16:06:44Z</time>
      </trkpt>
      <trkpt lat="44.28475" lon="5.55177">
        <ele>1314</ele>
        <time>2021-04-24T16:06:44Z</time>
      </trkpt>
      <trkpt lat="44.28469" lon="5.55183">
        <ele>1314</ele>
        <time>2021-04-24T16:06:44Z</time>
      </trkpt>
      <trkpt lat="44.28459" lon="5.55205">
        <ele>1313</ele>
        <time>2021-04-24T16:06:44Z</time>
      </trkpt>
      <trkpt lat="44.28437" lon="5.55215">
        <ele>1313</ele>
        <time>2021-04-24T16:06:44Z</time>
      </trkpt>
      <trkpt lat="44.28433" lon="5.55216">
        <ele>1313</ele>
        <time>2021-04-24T16:06:44Z</time>
      </trkpt>
      <trkpt lat="44.28413" lon="5.55235">
        <ele>1313</ele>
        <time>2021-04-24T16:06:44Z</time>
      </trkpt>
      <trkpt lat="44.2839" lon="5.55244">
        <ele>1312</ele>
        <time>2021-04-24T16:06:44Z</time>
      </trkpt>
      <trkpt lat="44.28386" lon="5.55246">
        <ele>1312</ele>
        <time>2021-04-24T16:06:44Z</time>
      </trkpt>
      <trkpt lat="44.2838" lon="5.55254">
        <ele>1312</ele>
        <time>2021-04-24T16:06:44Z</time>
      </trkpt>
      <trkpt lat="44.28359" lon="5.55268">
        <ele>1313</ele>
        <time>2021-04-24T16:06:44Z</time>
      </trkpt>
      <trkpt lat="44.2835" lon="5.55271">
        <ele>1313</ele>
        <time>2021-04-24T16:06:44Z</time>
      </trkpt>
      <trkpt lat="44.28347" lon="5.55272">
        <ele>1314</ele>
        <time>2021-04-24T16:06:44Z</time>
      </trkpt>
      <trkpt lat="44.28339" lon="5.55277">
        <ele>1314</ele>
        <time>2021-04-24T16:06:44Z</time>
      </trkpt>
      <trkpt lat="44.28331" lon="5.55279">
        <ele>1315</ele>
        <time>2021-04-24T16:06:44Z</time>
      </trkpt>
      <trkpt lat="44.28298" lon="5.55296">
        <ele>1316</ele>
        <time>2021-04-24T16:06:44Z</time>
      </trkpt>
      <trkpt lat="44.28298" lon="5.55296">
        <ele>1320</ele>
        <time>2021-04-24T16:06:44Z</time>
      </trkpt>
      <trkpt lat="44.28274" lon="5.55313">
        <ele>1320</ele>
        <time>2021-04-24T16:06:44Z</time>
      </trkpt>
      <trkpt lat="44.28267" lon="5.55322">
        <ele>1319</ele>
        <time>2021-04-24T16:06:44Z</time>
      </trkpt>
      <trkpt lat="44.28263" lon="5.55333">
        <ele>1319</ele>
        <time>2021-04-24T16:06:44Z</time>
      </trkpt>
      <trkpt lat="44.28263" lon="5.55333">
        <ele>1317</ele>
        <time>2021-04-24T16:06:44Z</time>
      </trkpt>
      <trkpt lat="44.28259" lon="5.55371">
        <ele>1317</ele>
        <time>2021-04-24T16:06:44Z</time>
      </trkpt>
      <trkpt lat="44.28256" lon="5.55382">
        <ele>1316</ele>
        <time>2021-04-24T16:06:44Z</time>
      </trkpt>
      <trkpt lat="44.2825" lon="5.55395">
        <ele>1316</ele>
        <time>2021-04-24T16:06:44Z</time>
      </trkpt>
      <trkpt lat="44.28244" lon="5.55403">
        <ele>1316</ele>
        <time>2021-04-24T16:06:44Z</time>
      </trkpt>
      <trkpt lat="44.28234" lon="5.55409">
        <ele>1315</ele>
        <time>2021-04-24T16:06:44Z</time>
      </trkpt>
      <trkpt lat="44.28234" lon="5.55409">
        <ele>1313</ele>
        <time>2021-04-24T16:06:44Z</time>
      </trkpt>
      <trkpt lat="44.28217" lon="5.55413">
        <ele>1313</ele>
        <time>2021-04-24T16:06:44Z</time>
      </trkpt>
      <trkpt lat="44.28192" lon="5.55416">
        <ele>1314</ele>
        <time>2021-04-24T16:06:44Z</time>
      </trkpt>
      <trkpt lat="44.28166" lon="5.55429">
        <ele>1314</ele>
        <time>2021-04-24T16:06:44Z</time>
      </trkpt>
      <trkpt lat="44.28166" lon="5.55429">
        <ele>1317</ele>
        <time>2021-04-24T16:06:44Z</time>
      </trkpt>
      <trkpt lat="44.28149" lon="5.55441">
        <ele>1318</ele>
        <time>2021-04-24T16:06:44Z</time>
      </trkpt>
      <trkpt lat="44.28132" lon="5.55457">
        <ele>1319</ele>
        <time>2021-04-24T16:06:44Z</time>
      </trkpt>
      <trkpt lat="44.28122" lon="5.5546">
        <ele>1320</ele>
        <time>2021-04-24T16:06:44Z</time>
      </trkpt>
      <trkpt lat="44.28122" lon="5.5546">
        <ele>1325</ele>
        <time>2021-04-24T16:06:44Z</time>
      </trkpt>
      <trkpt lat="44.28113" lon="5.55453">
        <ele>1326</ele>
        <time>2021-04-24T16:06:44Z</time>
      </trkpt>
      <trkpt lat="44.28106" lon="5.55439">
        <ele>1326</ele>
        <time>2021-04-24T16:06:44Z</time>
      </trkpt>
      <trkpt lat="44.28097" lon="5.55439">
        <ele>1327</ele>
        <time>2021-04-24T16:06:44Z</time>
      </trkpt>
      <trkpt lat="44.28099" lon="5.55496">
        <ele>1327</ele>
        <time>2021-04-24T16:06:44Z</time>
      </trkpt>
      <trkpt lat="44.28105" lon="5.55526">
        <ele>1326</ele>
        <time>2021-04-24T16:06:44Z</time>
      </trkpt>
      <trkpt lat="44.28098" lon="5.55533">
        <ele>1326</ele>
        <time>2021-04-24T16:06:44Z</time>
      </trkpt>
      <trkpt lat="44.28098" lon="5.55533">
        <ele>1323</ele>
        <time>2021-04-24T16:06:44Z</time>
      </trkpt>
      <trkpt lat="44.28052" lon="5.55483">
        <ele>1328</ele>
        <time>2021-04-24T16:06:44Z</time>
      </trkpt>
      <trkpt lat="44.28041" lon="5.55465">
        <ele>1331</ele>
        <time>2021-04-24T16:06:44Z</time>
      </trkpt>
      <trkpt lat="44.28032" lon="5.55462">
        <ele>1334</ele>
        <time>2021-04-24T16:06:44Z</time>
      </trkpt>
      <trkpt lat="44.28023" lon="5.55467">
        <ele>1336</ele>
        <time>2021-04-24T16:06:44Z</time>
      </trkpt>
      <trkpt lat="44.28023" lon="5.55467">
        <ele>1349</ele>
        <time>2021-04-24T16:06:44Z</time>
      </trkpt>
      <trkpt lat="44.28006" lon="5.55487">
        <ele>1350</ele>
        <time>2021-04-24T16:06:44Z</time>
      </trkpt>
      <trkpt lat="44.27996" lon="5.55509">
        <ele>1351</ele>
        <time>2021-04-24T16:06:44Z</time>
      </trkpt>
      <trkpt lat="44.27987" lon="5.55551">
        <ele>1352</ele>
        <time>2021-04-24T16:06:44Z</time>
      </trkpt>
      <trkpt lat="44.27989" lon="5.55578">
        <ele>1353</ele>
        <time>2021-04-24T16:06:44Z</time>
      </trkpt>
      <trkpt lat="44.27984" lon="5.55587">
        <ele>1353</ele>
        <time>2021-04-24T16:06:44Z</time>
      </trkpt>
      <trkpt lat="44.27972" lon="5.55577">
        <ele>1354</ele>
        <time>2021-04-24T16:06:44Z</time>
      </trkpt>
      <trkpt lat="44.27972" lon="5.55577">
        <ele>1361</ele>
        <time>2021-04-24T16:06:44Z</time>
      </trkpt>
      <trkpt lat="44.2792" lon="5.5549">
        <ele>1364</ele>
        <time>2021-04-24T16:06:44Z</time>
      </trkpt>
      <trkpt lat="44.27912" lon="5.55487">
        <ele>1365</ele>
        <time>2021-04-24T16:06:44Z</time>
      </trkpt>
      <trkpt lat="44.27908" lon="5.55495">
        <ele>1367</ele>
        <time>2021-04-24T16:06:44Z</time>
      </trkpt>
      <trkpt lat="44.27908" lon="5.55553">
        <ele>1370</ele>
        <time>2021-04-24T16:06:44Z</time>
      </trkpt>
      <trkpt lat="44.27904" lon="5.55567">
        <ele>1373</ele>
        <time>2021-04-24T16:06:44Z</time>
      </trkpt>
      <trkpt lat="44.27904" lon="5.55567">
        <ele>1385</ele>
        <time>2021-04-24T16:06:44Z</time>
      </trkpt>
      <trkpt lat="44.27897" lon="5.5557">
        <ele>1386</ele>
        <time>2021-04-24T16:06:44Z</time>
      </trkpt>
      <trkpt lat="44.27885" lon="5.55561">
        <ele>1386</ele>
        <time>2021-04-24T16:06:44Z</time>
      </trkpt>
      <trkpt lat="44.27866" lon="5.55538">
        <ele>1386</ele>
        <time>2021-04-24T16:06:44Z</time>
      </trkpt>
      <trkpt lat="44.27855" lon="5.55531">
        <ele>1387</ele>
        <time>2021-04-24T16:06:44Z</time>
      </trkpt>
      <trkpt lat="44.27845" lon="5.55534">
        <ele>1387</ele>
        <time>2021-04-24T16:06:44Z</time>
      </trkpt>
      <trkpt lat="44.27818" lon="5.55557">
        <ele>1388</ele>
        <time>2021-04-24T16:06:44Z</time>
      </trkpt>
      <trkpt lat="44.27818" lon="5.55557">
        <ele>1395</ele>
        <time>2021-04-24T16:06:44Z</time>
      </trkpt>
      <trkpt lat="44.2775" lon="5.55626">
        <ele>1410</ele>
        <time>2021-04-24T16:06:44Z</time>
      </trkpt>
      <trkpt lat="44.2775" lon="5.55626">
        <ele>1410</ele>
        <time>2021-04-24T16:06:44Z</time>
      </trkpt>
      <trkpt lat="44.27682" lon="5.55709">
        <ele>1413</ele>
        <time>2021-04-24T16:06:44Z</time>
      </trkpt>
      <trkpt lat="44.27674" lon="5.55722">
        <ele>1415</ele>
        <time>2021-04-24T16:06:44Z</time>
      </trkpt>
      <trkpt lat="44.27657" lon="5.5572">
        <ele>1417</ele>
        <time>2021-04-24T16:06:44Z</time>
      </trkpt>
      <trkpt lat="44.27648" lon="5.55725">
        <ele>1418</ele>
        <time>2021-04-24T16:06:44Z</time>
      </trkpt>
      <trkpt lat="44.27631" lon="5.55748">
        <ele>1420</ele>
        <time>2021-04-24T16:06:44Z</time>
      </trkpt>
      <trkpt lat="44.27603" lon="5.5575">
        <ele>1421</ele>
        <time>2021-04-24T16:06:44Z</time>
      </trkpt>
      <trkpt lat="44.27596" lon="5.55754">
        <ele>1421</ele>
        <time>2021-04-24T16:06:44Z</time>
      </trkpt>
      <trkpt lat="44.27596" lon="5.55754">
        <ele>1425</ele>
        <time>2021-04-24T16:06:44Z</time>
      </trkpt>
      <trkpt lat="44.27585" lon="5.55767">
        <ele>1425</ele>
        <time>2021-04-24T16:06:44Z</time>
      </trkpt>
      <trkpt lat="44.27574" lon="5.55775">
        <ele>1425</ele>
        <time>2021-04-24T16:06:44Z</time>
      </trkpt>
      <trkpt lat="44.27558" lon="5.55782">
        <ele>1425</ele>
        <time>2021-04-24T16:06:44Z</time>
      </trkpt>
      <trkpt lat="44.27532" lon="5.5578">
        <ele>1425</ele>
        <time>2021-04-24T16:06:44Z</time>
      </trkpt>
      <trkpt lat="44.27522" lon="5.55784">
        <ele>1424</ele>
        <time>2021-04-24T16:06:44Z</time>
      </trkpt>
      <trkpt lat="44.27511" lon="5.55783">
        <ele>1422</ele>
        <time>2021-04-24T16:06:44Z</time>
      </trkpt>
      <trkpt lat="44.27496" lon="5.55777">
        <ele>1421</ele>
        <time>2021-04-24T16:06:44Z</time>
      </trkpt>
      <trkpt lat="44.27489" lon="5.55769">
        <ele>1418</ele>
        <time>2021-04-24T16:06:44Z</time>
      </trkpt>
      <trkpt lat="44.27417" lon="5.55771">
        <ele>1408</ele>
        <time>2021-04-24T16:06:44Z</time>
      </trkpt>
      <trkpt lat="44.27413" lon="5.55787">
        <ele>1402</ele>
        <time>2021-04-24T16:06:44Z</time>
      </trkpt>
      <trkpt lat="44.27412" lon="5.558">
        <ele>1396</ele>
        <time>2021-04-24T16:06:44Z</time>
      </trkpt>
      <trkpt lat="44.27391" lon="5.55892">
        <ele>1390</ele>
        <time>2021-04-24T16:06:44Z</time>
      </trkpt>
      <trkpt lat="44.27383" lon="5.55905">
        <ele>1386</ele>
        <time>2021-04-24T16:06:44Z</time>
      </trkpt>
      <trkpt lat="44.27383" lon="5.55905">
        <ele>1371</ele>
        <time>2021-04-24T16:06:44Z</time>
      </trkpt>
      <trkpt lat="44.27378" lon="5.55914">
        <ele>1370</ele>
        <time>2021-04-24T16:06:44Z</time>
      </trkpt>
      <trkpt lat="44.2737" lon="5.55916">
        <ele>1369</ele>
        <time>2021-04-24T16:06:44Z</time>
      </trkpt>
      <trkpt lat="44.27278" lon="5.56065">
        <ele>1370</ele>
        <time>2021-04-24T16:06:44Z</time>
      </trkpt>
      <trkpt lat="44.27208" lon="5.56134">
        <ele>1370</ele>
        <time>2021-04-24T16:06:44Z</time>
      </trkpt>
      <trkpt lat="44.27197" lon="5.56152">
        <ele>1371</ele>
        <time>2021-04-24T16:06:44Z</time>
      </trkpt>
      <trkpt lat="44.27197" lon="5.56152">
        <ele>1373</ele>
        <time>2021-04-24T16:06:44Z</time>
      </trkpt>
      <trkpt lat="44.27192" lon="5.56161">
        <ele>1373</ele>
        <time>2021-04-24T16:06:44Z</time>
      </trkpt>
      <trkpt lat="44.27179" lon="5.56174">
        <ele>1374</ele>
        <time>2021-04-24T16:06:44Z</time>
      </trkpt>
      <trkpt lat="44.27168" lon="5.56201">
        <ele>1374</ele>
        <time>2021-04-24T16:06:44Z</time>
      </trkpt>
      <trkpt lat="44.27147" lon="5.56225">
        <ele>1375</ele>
        <time>2021-04-24T16:06:44Z</time>
      </trkpt>
      <trkpt lat="44.27139" lon="5.56241">
        <ele>1376</ele>
        <time>2021-04-24T16:06:44Z</time>
      </trkpt>
      <trkpt lat="44.27046" lon="5.56368">
        <ele>1383</ele>
      </trkpt>
      <trkpt lat="44.26953" lon="5.56495">
        <ele>1395</ele>
        <time>2021-04-24T16:06:44Z</time>
      </trkpt>
      <trkpt lat="44.26953" lon="5.56495">
        <ele>1418</ele>
        <time>2021-04-24T16:06:44Z</time>
      </trkpt>
      <trkpt lat="44.26946" lon="5.56503">
        <ele>1418</ele>
        <time>2021-04-24T16:06:44Z</time>
      </trkpt>
      <trkpt lat="44.26935" lon="5.56506">
        <ele>1418</ele>
        <time>2021-04-24T16:06:44Z</time>
      </trkpt>
      <trkpt lat="44.26903" lon="5.56539">
        <ele>1419</ele>
        <time>2021-04-24T16:06:44Z</time>
      </trkpt>
      <trkpt lat="44.26761" lon="5.56691">
        <ele>1423</ele>
        <time>2021-04-24T16:06:44Z</time>
      </trkpt>
      <trkpt lat="44.26687" lon="5.56723">
        <ele>1427</ele>
        <time>2021-04-24T16:06:44Z</time>
      </trkpt>
      <trkpt lat="44.26647" lon="5.56749">
        <ele>1433</ele>
        <time>2021-04-24T16:06:44Z</time>
      </trkpt>
      <trkpt lat="44.26595" lon="5.56818">
        <ele>1440</ele>
        <time>2021-04-24T16:06:44Z</time>
      </trkpt>
      <trkpt lat="44.2649" lon="5.56908">
        <ele>1455</ele>
        <time>2021-04-24T16:06:44Z</time>
      </trkpt>
      <trkpt lat="44.26392" lon="5.57045">
        <ele>1476</ele>
        <time>2021-04-24T16:06:44Z</time>
      </trkpt>
      <trkpt lat="44.26321" lon="5.57105">
        <ele>1486</ele>
        <time>2021-04-24T16:06:44Z</time>
      </trkpt>
      <trkpt lat="44.26269" lon="5.5714">
        <ele>1490</ele>
        <time>2021-04-24T16:06:44Z</time>
      </trkpt>
      <trkpt lat="44.26122" lon="5.57264">
        <ele>1501</ele>
        <time>2021-04-24T16:06:44Z</time>
      </trkpt>
      <trkpt lat="44.26069" lon="5.57255">
        <ele>1505</ele>
        <time>2021-04-24T16:06:44Z</time>
      </trkpt>
      <trkpt lat="44.26014" lon="5.57208">
        <ele>1507</ele>
        <time>2021-04-24T16:06:44Z</time>
      </trkpt>
      <trkpt lat="44.25928" lon="5.57062">
        <ele>1510</ele>
        <time>2021-04-24T16:06:44Z</time>
      </trkpt>
      <trkpt lat="44.25894" lon="5.56989">
        <ele>1509</ele>
        <time>2021-04-24T16:06:44Z</time>
      </trkpt>
      <trkpt lat="44.25876" lon="5.56916">
        <ele>1507</ele>
        <time>2021-04-24T16:06:44Z</time>
      </trkpt>
      <trkpt lat="44.2587" lon="5.56843">
        <ele>1503</ele>
        <time>2021-04-24T16:06:44Z</time>
      </trkpt>
      <trkpt lat="44.25882" lon="5.5677">
        <ele>1500</ele>
        <time>2021-04-24T16:06:44Z</time>
      </trkpt>
      <trkpt lat="44.25913" lon="5.56698">
        <ele>1498</ele>
        <time>2021-04-24T16:06:44Z</time>
      </trkpt>
      <trkpt lat="44.25925" lon="5.5662">
        <ele>1494</ele>
        <time>2021-04-24T16:06:44Z</time>
      </trkpt>
      <trkpt lat="44.25922" lon="5.56393">
        <ele>1475</ele>
        <time>2021-04-24T16:06:44Z</time>
      </trkpt>
      <trkpt lat="44.25919" lon="5.5626">
        <ele>1454</ele>
        <time>2021-04-24T16:06:44Z</time>
      </trkpt>
      <trkpt lat="44.25937" lon="5.56187">
        <ele>1448</ele>
        <time>2021-04-24T16:06:44Z</time>
      </trkpt>
      <trkpt lat="44.2594" lon="5.56114">
        <ele>1443</ele>
        <time>2021-04-24T16:06:44Z</time>
      </trkpt>
      <trkpt lat="44.25906" lon="5.55968">
        <ele>1433</ele>
        <time>2021-04-24T16:06:44Z</time>
      </trkpt>
      <trkpt lat="44.25922" lon="5.55818">
        <ele>1430</ele>
        <time>2021-04-24T16:06:44Z</time>
      </trkpt>
      <trkpt lat="44.25919" lon="5.55745">
        <ele>1424</ele>
        <time>2021-04-24T16:06:44Z</time>
      </trkpt>
      <trkpt lat="44.2587" lon="5.55599">
        <ele>1407</ele>
        <time>2021-04-24T16:06:44Z</time>
      </trkpt>
      <trkpt lat="44.25873" lon="5.55479">
        <ele>1388</ele>
        <time>2021-04-24T16:06:44Z</time>
      </trkpt>
      <trkpt lat="44.25873" lon="5.55479">
        <ele>1351</ele>
        <time>2021-04-24T16:06:44Z</time>
      </trkpt>
      <trkpt lat="44.25865" lon="5.55463">
        <ele>1350</ele>
        <time>2021-04-24T16:06:44Z</time>
      </trkpt>
      <trkpt lat="44.25908" lon="5.55434">
        <ele>1350</ele>
        <time>2021-04-24T16:06:44Z</time>
      </trkpt>
      <trkpt lat="44.25916" lon="5.55431">
        <ele>1350</ele>
        <time>2021-04-24T16:06:44Z</time>
      </trkpt>
      <trkpt lat="44.25922" lon="5.55424">
        <ele>1349</ele>
        <time>2021-04-24T16:06:44Z</time>
      </trkpt>
      <trkpt lat="44.25944" lon="5.55431">
        <ele>1350</ele>
        <time>2021-04-24T16:06:44Z</time>
      </trkpt>
      <trkpt lat="44.2599" lon="5.55429">
        <ele>1353</ele>
        <time>2021-04-24T16:06:44Z</time>
      </trkpt>
      <trkpt lat="44.26019" lon="5.55435">
        <ele>1357</ele>
        <time>2021-04-24T16:06:44Z</time>
      </trkpt>
      <trkpt lat="44.26024" lon="5.55443">
        <ele>1359</ele>
        <time>2021-04-24T16:06:44Z</time>
      </trkpt>
      <trkpt lat="44.26057" lon="5.55462">
        <ele>1372.6</ele>
        <time>2021-04-24T16:06:44Z</time>
      </trkpt>
      <trkpt lat="44.26074" lon="5.55468">
        <ele>1374</ele>
        <time>2021-04-24T16:06:44Z</time>
      </trkpt>
      <trkpt lat="44.26095" lon="5.55476">
        <ele>1374.1</ele>
        <time>2021-04-24T16:06:44Z</time>
      </trkpt>
      <trkpt lat="44.26139" lon="5.55491">
        <ele>1372.1</ele>
      </trkpt>
      <trkpt lat="44.2618" lon="5.55503">
        <ele>1367</ele>
        <time>2021-04-24T16:06:44Z</time>
      </trkpt>
      <trkpt lat="44.26189" lon="5.55504">
        <ele>1368</ele>
        <time>2021-04-24T16:06:44Z</time>
      </trkpt>
      <trkpt lat="44.26204" lon="5.55496">
        <ele>1368</ele>
        <time>2021-04-24T16:06:44Z</time>
      </trkpt>
      <trkpt lat="44.26285" lon="5.55457">
        <ele>1351.8</ele>
        <time>2021-04-24T16:06:44Z</time>
      </trkpt>
      <trkpt lat="44.2631" lon="5.55462">
        <ele>1349.2</ele>
      </trkpt>
      <trkpt lat="44.26312" lon="5.55466">
        <ele>1349.2</ele>
        <time>2021-04-24T16:06:44Z</time>
      </trkpt>
      <trkpt lat="44.26324" lon="5.55471">
        <ele>1347.7</ele>
      </trkpt>
      <trkpt lat="44.26334" lon="5.55477">
        <ele>1346.4</ele>
        <time>2021-04-24T16:06:44Z</time>
      </trkpt>
      <trkpt lat="44.26344" lon="5.55481">
        <ele>1342.2</ele>
        <time>2021-04-24T16:06:44Z</time>
      </trkpt>
      <trkpt lat="44.26348" lon="5.55496">
        <ele>1357</ele>
        <time>2021-04-24T16:06:44Z</time>
      </trkpt>
      <trkpt lat="44.26353" lon="5.55505">
        <ele>1354</ele>
        <time>2021-04-24T16:06:44Z</time>
      </trkpt>
      <trkpt lat="44.2634" lon="5.55535">
        <ele>1353</ele>
        <time>2021-04-24T16:06:44Z</time>
      </trkpt>
      <trkpt lat="44.26302" lon="5.55837">
        <ele>1341</ele>
        <time>2021-04-24T16:06:44Z</time>
      </trkpt>
      <trkpt lat="44.26305" lon="5.55877">
        <ele>1335</ele>
        <time>2021-04-24T16:06:44Z</time>
      </trkpt>
      <trkpt lat="44.26312" lon="5.55878">
        <ele>1330</ele>
        <time>2021-04-24T16:06:44Z</time>
      </trkpt>
      <trkpt lat="44.26322" lon="5.55868">
        <ele>1327</ele>
        <time>2021-04-24T16:06:44Z</time>
      </trkpt>
      <trkpt lat="44.26362" lon="5.55793">
        <ele>1321</ele>
        <time>2021-04-24T16:06:44Z</time>
      </trkpt>
      <trkpt lat="44.26371" lon="5.55767">
        <ele>1316</ele>
        <time>2021-04-24T16:06:44Z</time>
      </trkpt>
      <trkpt lat="44.26403" lon="5.55701">
        <ele>1309</ele>
        <time>2021-04-24T16:06:44Z</time>
      </trkpt>
      <trkpt lat="44.26425" lon="5.55677">
        <ele>1304</ele>
        <time>2021-04-24T16:06:44Z</time>
      </trkpt>
      <trkpt lat="44.26433" lon="5.55662">
        <ele>1300</ele>
        <time>2021-04-24T16:06:44Z</time>
      </trkpt>
      <trkpt lat="44.26442" lon="5.55654">
        <ele>1297</ele>
        <time>2021-04-24T16:06:44Z</time>
      </trkpt>
      <trkpt lat="44.26442" lon="5.55654">
        <ele>1283</ele>
        <time>2021-04-24T16:06:44Z</time>
      </trkpt>
      <trkpt lat="44.26485" lon="5.55664">
        <ele>1290</ele>
        <time>2021-04-24T16:06:44Z</time>
      </trkpt>
      <trkpt lat="44.26495" lon="5.5568">
        <ele>1300.2</ele>
      </trkpt>
      <trkpt lat="44.26512" lon="5.55687">
        <ele>1300.9</ele>
        <time>2021-04-24T16:06:44Z</time>
      </trkpt>
      <trkpt lat="44.26531" lon="5.55699">
        <ele>1302.5</ele>
        <time>2021-04-24T16:06:44Z</time>
      </trkpt>
      <trkpt lat="44.26554" lon="5.55744">
        <ele>1309.3</ele>
        <time>2021-04-24T16:06:44Z</time>
      </trkpt>
      <trkpt lat="44.26579" lon="5.55775">
        <ele>1314.5</ele>
        <time>2021-04-24T16:06:44Z</time>
      </trkpt>
      <trkpt lat="44.26607" lon="5.55786">
        <ele>1316.7</ele>
        <time>2021-04-24T16:06:44Z</time>
      </trkpt>
      <trkpt lat="44.2662" lon="5.55791">
        <ele>1317.6</ele>
      </trkpt>
      <trkpt lat="44.26641" lon="5.55788">
        <ele>1317.4</ele>
      </trkpt>
      <trkpt lat="44.26665" lon="5.55784">
        <ele>1317.1</ele>
        <time>2021-04-24T16:06:44Z</time>
      </trkpt>
      <trkpt lat="44.26678" lon="5.55808">
        <ele>1317.6</ele>
        <time>2021-04-24T16:06:44Z</time>
      </trkpt>
      <trkpt lat="44.26674" lon="5.55829">
        <ele>1321</ele>
        <time>2021-04-24T16:06:44Z</time>
      </trkpt>
      <trkpt lat="44.26677" lon="5.55852">
        <ele>1325.3</ele>
        <time>2021-04-24T16:06:44Z</time>
      </trkpt>
      <trkpt lat="44.26693" lon="5.55867">
        <ele>1326.1</ele>
        <time>2021-04-24T16:06:44Z</time>
      </trkpt>
      <trkpt lat="44.26714" lon="5.55878">
        <ele>1325.4</ele>
        <time>2021-04-24T16:06:44Z</time>
      </trkpt>
      <trkpt lat="44.26721" lon="5.55907">
        <ele>1331.3</ele>
        <time>2021-04-24T16:06:44Z</time>
      </trkpt>
      <trkpt lat="44.26727" lon="5.55942">
        <ele>1339</ele>
      </trkpt>
      <trkpt lat="44.26734" lon="5.55966">
        <ele>1343.9</ele>
      </trkpt>
      <trkpt lat="44.2674" lon="5.55969">
        <ele>1344.5</ele>
        <time>2021-04-24T16:06:44Z</time>
      </trkpt>
      <trkpt lat="44.26771" lon="5.55981">
        <ele>1345.8</ele>
      </trkpt>
      <trkpt lat="44.26799" lon="5.55974">
        <ele>1342.5</ele>
      </trkpt>
      <trkpt lat="44.26818" lon="5.55982">
        <ele>1343</ele>
        <time>2021-04-24T16:06:44Z</time>
      </trkpt>
      <trkpt lat="44.26846" lon="5.56025">
        <ele>1351.4</ele>
        <time>2021-04-24T16:06:44Z</time>
      </trkpt>
      <trkpt lat="44.26862" lon="5.56059">
        <ele>1358.2</ele>
        <time>2021-04-24T16:06:44Z</time>
      </trkpt>
      <trkpt lat="44.26873" lon="5.56054">
        <ele>1357.7</ele>
      </trkpt>
      <trkpt lat="44.26879" lon="5.5598">
        <ele>1346.1</ele>
      </trkpt>
      <trkpt lat="44.26884" lon="5.55964">
        <ele>1344</ele>
      </trkpt>
      <trkpt lat="44.26885" lon="5.5594">
        <ele>1340.3</ele>
      </trkpt>
      <trkpt lat="44.26892" lon="5.55909">
        <ele>1336.8</ele>
      </trkpt>
      <trkpt lat="44.269" lon="5.55871">
        <ele>1332.5</ele>
      </trkpt>
      <trkpt lat="44.26896" lon="5.5584">
        <ele>1327</ele>
      </trkpt>
      <trkpt lat="44.26906" lon="5.55801">
        <ele>1323.1</ele>
      </trkpt>
      <trkpt lat="44.26902" lon="5.55757">
        <ele>1315.3</ele>
      </trkpt>
      <trkpt lat="44.26909" lon="5.55749">
        <ele>1315.8</ele>
      </trkpt>
      <trkpt lat="44.2691" lon="5.5573">
        <ele>1312.7</ele>
      </trkpt>
      <trkpt lat="44.26916" lon="5.55708">
        <ele>1310.8</ele>
        <time>2021-04-24T16:06:44Z</time>
      </trkpt>
      <trkpt lat="44.26931" lon="5.55695">
        <ele>1308.9</ele>
      </trkpt>
      <trkpt lat="44.26956" lon="5.55661">
        <ele>1303.9</ele>
      </trkpt>
      <trkpt lat="44.26967" lon="5.5563">
        <ele>1298.5</ele>
        <time>2021-04-24T16:06:44Z</time>
      </trkpt>
      <trkpt lat="44.26985" lon="5.55545">
        <ele>1283.6</ele>
      </trkpt>
      <trkpt lat="44.2701" lon="5.55531">
        <ele>1283</ele>
        <time>2021-04-24T16:06:44Z</time>
      </trkpt>
      <trkpt lat="44.27024" lon="5.55541">
        <ele>1284.5</ele>
      </trkpt>
      <trkpt lat="44.27034" lon="5.55557">
        <ele>1286.9</ele>
      </trkpt>
      <trkpt lat="44.27062" lon="5.55602">
        <ele>1291.9</ele>
        <time>2021-04-24T16:06:44Z</time>
      </trkpt>
      <trkpt lat="44.27069" lon="5.55529">
        <ele>1281.2</ele>
      </trkpt>
      <trkpt lat="44.27075" lon="5.55495">
        <ele>1276.1</ele>
      </trkpt>
      <trkpt lat="44.27073" lon="5.55473">
        <ele>1272.3</ele>
      </trkpt>
      <trkpt lat="44.27079" lon="5.55439">
        <ele>1267.1</ele>
        <time>2021-04-24T16:06:44Z</time>
      </trkpt>
      <trkpt lat="44.27097" lon="5.55404">
        <ele>1262.5</ele>
        <time>2021-04-24T16:06:44Z</time>
      </trkpt>
      <trkpt lat="44.27099" lon="5.55389">
        <ele>1260</ele>
      </trkpt>
      <trkpt lat="44.27098" lon="5.55373">
        <ele>1257.3</ele>
      </trkpt>
      <trkpt lat="44.27114" lon="5.55363">
        <ele>1255</ele>
        <time>2021-04-24T16:06:44Z</time>
      </trkpt>
      <trkpt lat="44.27132" lon="5.55362">
        <ele>1256</ele>
        <time>2021-04-24T16:06:44Z</time>
      </trkpt>
      <trkpt lat="44.27151" lon="5.55372">
        <ele>1258</ele>
        <time>2021-04-24T16:06:44Z</time>
      </trkpt>
      <trkpt lat="44.27175" lon="5.55395">
        <ele>1260</ele>
        <time>2021-04-24T16:06:44Z</time>
      </trkpt>
      <trkpt lat="44.2718" lon="5.55403">
        <ele>1261</ele>
        <time>2021-04-24T16:06:44Z</time>
      </trkpt>
      <trkpt lat="44.27223" lon="5.55518">
        <ele>1266</ele>
        <time>2021-04-24T16:06:44Z</time>
      </trkpt>
      <trkpt lat="44.27232" lon="5.55524">
        <ele>1269</ele>
        <time>2021-04-24T16:06:44Z</time>
      </trkpt>
      <trkpt lat="44.27271" lon="5.55497">
        <ele>1272</ele>
        <time>2021-04-24T16:06:44Z</time>
      </trkpt>
      <trkpt lat="44.27289" lon="5.55456">
        <ele>1274</ele>
        <time>2021-04-24T16:06:44Z</time>
      </trkpt>
      <trkpt lat="44.27289" lon="5.55456">
        <ele>1284</ele>
        <time>2021-04-24T16:06:44Z</time>
      </trkpt>
      <trkpt lat="44.27293" lon="5.55447">
        <ele>1284</ele>
        <time>2021-04-24T16:06:44Z</time>
      </trkpt>
      <trkpt lat="44.27405" lon="5.55321">
        <ele>1280</ele>
        <time>2021-04-24T16:06:44Z</time>
      </trkpt>
      <trkpt lat="44.27419" lon="5.55312">
        <ele>1276</ele>
        <time>2021-04-24T16:06:44Z</time>
      </trkpt>
      <trkpt lat="44.27462" lon="5.55308">
        <ele>1274</ele>
        <time>2021-04-24T16:06:44Z</time>
      </trkpt>
      <trkpt lat="44.27544" lon="5.55319">
        <ele>1273</ele>
        <time>2021-04-24T16:06:44Z</time>
      </trkpt>
      <trkpt lat="44.27555" lon="5.55314">
        <ele>1272</ele>
        <time>2021-04-24T16:06:44Z</time>
      </trkpt>
      <trkpt lat="44.27594" lon="5.55291">
        <ele>1270</ele>
        <time>2021-04-24T16:06:44Z</time>
      </trkpt>
      <trkpt lat="44.27823" lon="5.552">
        <ele>1271</ele>
        <time>2021-04-24T16:06:44Z</time>
      </trkpt>
      <trkpt lat="44.27823" lon="5.552">
        <ele>1273</ele>
        <time>2021-04-24T16:06:44Z</time>
      </trkpt>
      <trkpt lat="44.27883" lon="5.55193">
        <ele>1272</ele>
        <time>2021-04-24T16:06:44Z</time>
      </trkpt>
      <trkpt lat="44.28169" lon="5.5527">
        <ele>1279</ele>
        <time>2021-04-24T16:06:44Z</time>
      </trkpt>
      <trkpt lat="44.28176" lon="5.55278">
        <ele>1282</ele>
        <time>2021-04-24T16:06:44Z</time>
      </trkpt>
      <trkpt lat="44.28206" lon="5.55336">
        <ele>1288</ele>
        <time>2021-04-24T16:06:44Z</time>
      </trkpt>
      <trkpt lat="44.28206" lon="5.55336">
        <ele>1302</ele>
        <time>2021-04-24T16:06:44Z</time>
      </trkpt>
      <trkpt lat="44.2824" lon="5.55406">
        <ele>1305</ele>
        <time>2021-04-24T16:06:44Z</time>
      </trkpt>
      <trkpt lat="44.28247" lon="5.554">
        <ele>1307</ele>
        <time>2021-04-24T16:06:44Z</time>
      </trkpt>
      <trkpt lat="44.28258" lon="5.55377">
        <ele>1309</ele>
        <time>2021-04-24T16:06:44Z</time>
      </trkpt>
      <trkpt lat="44.28264" lon="5.5533">
        <ele>1311</ele>
        <time>2021-04-24T16:06:44Z</time>
      </trkpt>
      <trkpt lat="44.28269" lon="5.55319">
        <ele>1312</ele>
        <time>2021-04-24T16:06:44Z</time>
      </trkpt>
      <trkpt lat="44.28275" lon="5.55312">
        <ele>1313</ele>
        <time>2021-04-24T16:06:44Z</time>
      </trkpt>
      <trkpt lat="44.28337" lon="5.55274">
        <ele>1314</ele>
        <time>2021-04-24T16:06:44Z</time>
      </trkpt>
      <trkpt lat="44.28365" lon="5.55261">
        <ele>1314</ele>
        <time>2021-04-24T16:06:44Z</time>
      </trkpt>
      <trkpt lat="44.28391" lon="5.55238">
        <ele>1313</ele>
        <time>2021-04-24T16:06:44Z</time>
      </trkpt>
      <trkpt lat="44.28406" lon="5.55217">
        <ele>1313</ele>
        <time>2021-04-24T16:06:44Z</time>
      </trkpt>
      <trkpt lat="44.28427" lon="5.55161">
        <ele>1311</ele>
        <time>2021-04-24T16:06:44Z</time>
      </trkpt>
      <trkpt lat="44.28433" lon="5.55139">
        <ele>1310</ele>
        <time>2021-04-24T16:06:44Z</time>
      </trkpt>
      <trkpt lat="44.28466" lon="5.55038">
        <ele>1305</ele>
        <time>2021-04-24T16:06:44Z</time>
      </trkpt>
      <trkpt lat="44.28466" lon="5.55038">
        <ele>1290</ele>
        <time>2021-04-24T16:06:44Z</time>
      </trkpt>
      <trkpt lat="44.28497" lon="5.54959">
        <ele>1289</ele>
        <time>2021-04-24T16:06:44Z</time>
      </trkpt>
      <trkpt lat="44.28512" lon="5.54935">
        <ele>1288</ele>
        <time>2021-04-24T16:06:44Z</time>
      </trkpt>
      <trkpt lat="44.28524" lon="5.54897">
        <ele>1288</ele>
        <time>2021-04-24T16:06:44Z</time>
      </trkpt>
      <trkpt lat="44.28531" lon="5.5489">
        <ele>1288</ele>
        <time>2021-04-24T16:06:44Z</time>
      </trkpt>
      <trkpt lat="44.28539" lon="5.54886">
        <ele>1288</ele>
        <time>2021-04-24T16:06:44Z</time>
      </trkpt>
      <trkpt lat="44.28539" lon="5.54886">
        <ele>1288</ele>
        <time>2021-04-24T16:06:44Z</time>
      </trkpt>
      <trkpt lat="44.28548" lon="5.54907">
        <ele>1288</ele>
        <time>2021-04-24T16:06:44Z</time>
      </trkpt>
      <trkpt lat="44.28566" lon="5.54924">
        <ele>1289</ele>
        <time>2021-04-24T16:06:44Z</time>
      </trkpt>
      <trkpt lat="44.28623" lon="5.54941">
        <ele>1290</ele>
        <time>2021-04-24T16:06:44Z</time>
      </trkpt>
      <trkpt lat="44.28708" lon="5.54962">
        <ele>1292</ele>
        <time>2021-04-24T16:06:44Z</time>
      </trkpt>
      <trkpt lat="44.28715" lon="5.54966">
        <ele>1293</ele>
        <time>2021-04-24T16:06:44Z</time>
      </trkpt>
      <trkpt lat="44.2873" lon="5.54983">
        <ele>1294</ele>
        <time>2021-04-24T16:06:44Z</time>
      </trkpt>
    </trkseg>
  </trk>
</gpx>